Regional Weather Roundup
Issued by NWS

Home | Current Version | Previous Version | Graphics & Text | Print | Product List | Glossary On
Versions: 1 2 3 4 5 6 7 8 9 10 11 12 13 14 15 16 17 18 19 20 21 22 23 24 25 26 27 28 29 30 31 32 33 34 35 36 37 38 39 40 41 42 43 44 45 46 47 48 49 50
000
ASUS45 KPSR 020700
RWRAZ

PRELIMINARY ARIZONA REGIONAL HOURLY WEATHER ROUNDUP
NATIONAL WEATHER SERVICE PHOENIX AZ
1200 AM MST TUE SEP 02 2014

NOTE: FAIR INDICATES FEW OR NO CLOUDS BELOW 12,000 FEET WITH NO
SIGNIFICANT WEATHER AND/OR OBSTRUCTIONS TO VISIBILITY.

AZZ001>003-036-020800-
NORTHWEST ARIZONA

CITY           SKY/WX    TMP DP  RH WIND       PRES   REMARKS
KINGMAN        CLEAR     75  40  28 S10       29.95S
$$

AZZ004>008-015-016-018-020800-
NORTH CENTRAL ARIZONA

CITY           SKY/WX    TMP DP  RH WIND       PRES   REMARKS
GRAND CANYON     N/A    N/A N/A N/A MISG        N/A
WILLIAMS       CLEAR     55  41  58 SE8       30.28F
PRESCOTT       CLEAR     67  41  38 S9        30.10S
FLAGSTAFF      CLEAR     52  42  69 CALM      30.26S
PAYSON         CLEAR     66  39  37 CALM      30.12F
PAGE           CLEAR     77  38  24 SW3       29.98S
$$

AZZ009>014-017-020800-
NORTHEAST ARIZONA

CITY           SKY/WX    TMP DP  RH WIND       PRES   REMARKS
WINSLOW        NOT AVBL
SAINT JOHNS    CLEAR     67  37  33 S6        30.14S
WINDOW ROCK    CLEAR     55  32  41 CALM      30.21S
$$

AZZ023-020800-
GREATER PHOENIX AREA

CITY           SKY/WX    TMP DP  RH WIND       PRES   REMARKS
PHOENIX        CLEAR     92  47  21 CALM      29.76S
LUKE AFB       NOT AVBL
DEER VALLEY    CLEAR     87  41  19 CALM      29.79R
SCOTTSDALE     CLEAR     86  45  23 CALM      29.81R
MESA-GATEWAY   CLEAR     84  46  26 E6        29.80F
$$

AZZ027-028-020800-
SOUTHWEST MARICOPA COUNTY AND PINAL COUNTY

CITY           SKY/WX    TMP DP  RH WIND       PRES   REMARKS
CASA GRANDE    CLEAR     86  39  19 SW6       29.80S
$$

AZZ503-504-507>509-020800-
SOUTHEAST ARIZONA

CITY           SKY/WX    TMP DP  RH WIND       PRES   REMARKS
TUCSON         CLEAR     85  47  26 S7        29.93R
DAVIS-MONTHAN  CLEAR     82  49  31 S6        29.91S
NOGALES        CLEAR     71  53  52 CALM      30.03R
SIERRA VISTA   CLEAR     77  46  33 SW12      30.10R
SAFFORD        CLEAR     77  37  23 S3        29.93S
$$

AZZ020-021-025-026-031-020800-
SOUTHWEST ARIZONA

CITY           SKY/WX    TMP DP  RH WIND       PRES   REMARKS
YUMA           NOT AVBL
$$

CAZ031-033-041-043-047-048-061-020800-
SOUTHERN CALIFORNIA

CITY           SKY/WX    TMP DP  RH WIND       PRES   REMARKS
DOWNTOWN L.A.  CLEAR     71  61  70 CALM      29.82S
L.A. AIRPORT   PTCLDY    70  65  84 CALM      29.83S
SAN DIEGO      MOCLDY    70  63  78 SE8       29.86R
BURBANK        CLEAR     71  63  75 E6        29.83S
ONTARIO        CLEAR     70  61  73 W5        29.84S
RIVERSIDE      CLEAR     70  61  73 W3        29.84S
PALM SPRINGS   CLEAR     88  34  14 CALM      29.73S
IMPERIAL       CLEAR     89  43  20 SW5       29.67S
BLYTHE         CLEAR     91  44  19 SW8       29.70R
$$

NVZ020-UTZ003-020800-
SOUTHERN NEVADA-UTAH

CITY           SKY/WX    TMP DP  RH WIND       PRES   REMARKS
LAS VEGAS      NOT AVBL
SALT LAKE CITY CLEAR     63  36  36 S9        30.04S
$$

NMZ009-TXZ055-020800-
NEW MEXICO-WEST TEXAS

CITY           SKY/WX    TMP DP  RH WIND       PRES   REMARKS
ALBUQUERQUE    CLEAR     75  39  27 CALM      30.08S
EL PASO        PTCLDY    81  38  21 S5        29.97S
$$


........................KEY........................
SKY/WX - SKY CONDITION/WEATHER
TMP    - TEMPERATURE IN FAHRENHEIT
DP     - DEW POINT IN FAHRENHEIT
RH     - RELATIVE HUMIDITY IN PERCENT
WIND   - DIRECTION AND SPEED IN MILES PER HOUR (MPH)
VRB    - VARIABLE WIND DIRECTION
PRES   - MEAN SEA LEVEL PRESSURE IN INCHES OF MERCURY
         F - FALLING PRESSURE   R - RISING PRESSURE
         S - STEADY PRESSURE
VSB    - VISIBILITY IN MILES
HX     - HEAT INDEX IN FAHRENHEIT
WCI    - WIND CHILL INDEX IN FAHRENHEIT
TC     - TEMPERATURE IN CELSIUS WHICH IS ALSO KNOWN AS
         TEMPERATURE IN CENTIGRADE
AFB    - AIR FORCE BASE
         LUKE AFB IS LUKE AIR FORCE BASE
         DAVIS-MONTHAN IS DAVIS-MONTHAN AIR FORCE BASE
NAS    - NAVAL AIR STATION
         EL CENTRO NAS IS EL CENTRO NAVAL AIR STATION
N/A    - NOT AVAILABLE



USA.gov is the U.S. government's official web portal to all federal, state and local government web resources and services.